| time (UTC) | temp F | wind direction | speed MPH | gust MPH | rain 1hr in | rain 24hr in | rain mn in | humidity % | barometer mb |
| 20260508173222 | 61 | 26 | 0.0 | 3.0 | 0.00 | 0.01 | 0.01 | 61 | 1015.0 |
| 20260508172733 | 62 | 336 | 0.0 | 0.0 | 0.00 | 0.01 | 0.01 | 60 | 1014.8 |
| 20260508172222 | 63 | 350 | 0.0 | 5.0 | 0.00 | 0.01 | 0.01 | 59 | 1014.8 |
| 20260508171712 | 63 | 355 | 1.0 | 6.0 | 0.00 | 0.01 | 0.01 | 59 | 1014.7 |
| 20260508171220 | 63 | 339 | 3.0 | 7.0 | 0.00 | 0.01 | 0.01 | 59 | 1014.8 |
| 20260508170728 | 63 | 305 | 3.0 | 7.0 | 0.00 | 0.01 | 0.01 | 58 | 1014.7 |
| 20260508170220 | 63 | 312 | 3.0 | 7.0 | 0.00 | 0.01 | 0.01 | 58 | 1014.7 |
| 20260508165736 | 63 | 307 | 3.0 | 6.0 | 0.00 | 0.01 | 0.01 | 58 | 1014.6 |
| 20260508165216 | 63 | 306 | 2.0 | 6.0 | 0.00 | 0.01 | 0.01 | 62 | 1014.6 |
| 20260508164226 | 63 | 281 | 2.0 | 8.0 | 0.00 | 0.01 | 0.01 | 62 | 1014.6 |
| 20260508163221 | 62 | 272 | 3.0 | 9.0 | 0.00 | 0.01 | 0.01 | 64 | 1014.6 |
| 20260508162713 | 62 | 298 | 3.0 | 9.0 | 0.00 | 0.01 | 0.01 | 65 | 1014.6 |
| 20260508162222 | 62 | 304 | 1.0 | 0.0 | 0.00 | 0.01 | 0.01 | 67 | 1014.6 |
| 20260508161732 | 61 | 310 | 0.0 | 5.0 | 0.00 | 0.01 | 0.01 | 70 | 1014.6 |
| 20260508161227 | 61 | 281 | 0.0 | 5.0 | 0.00 | 0.01 | 0.01 | 69 | 1014.6 |
| 20260508160719 | 61 | 327 | 1.0 | 6.0 | 0.00 | 0.01 | 0.01 | 68 | 1014.8 |
| 20260508160208 | 61 | 289 | 1.0 | 6.0 | 0.00 | 0.01 | 0.01 | 67 | 1014.7 |
| 20260508155712 | 61 | 317 | 1.0 | 6.0 | 0.00 | 0.01 | 0.01 | 67 | 1014.7 |
| 20260508154727 | 62 | 302 | 3.0 | 8.0 | 0.00 | 0.01 | 0.01 | 65 | 1014.8 |
| 20260508154214 | 62 | 299 | 3.0 | 8.0 | 0.00 | 0.01 | 0.01 | 64 | 1014.7 |
| 20260508153711 | 63 | 281 | 5.0 | 8.0 | 0.00 | 0.01 | 0.01 | 63 | 1014.7 |
| 20260508153224 | 63 | 313 | 4.0 | 8.0 | 0.00 | 0.01 | 0.01 | 64 | 1014.7 |
| 20260508152725 | 63 | 307 | 3.0 | 7.0 | 0.00 | 0.01 | 0.01 | 64 | 1014.6 |
| 20260508151715 | 61 | 296 | 2.0 | 7.0 | 0.00 | 0.01 | 0.01 | 67 | 1014.8 |
| 20260508151227 | 61 | 287 | 1.0 | 7.0 | 0.00 | 0.01 | 0.01 | 67 | 1014.8 |
| 20260508150721 | 61 | 335 | 1.0 | 7.0 | 0.00 | 0.01 | 0.01 | 68 | 1014.8 |
| 20260508150223 | 61 | 317 | 2.0 | 7.0 | 0.00 | 0.01 | 0.01 | 67 | 1014.8 |
| 20260508145722 | 61 | 311 | 3.0 | 7.0 | 0.00 | 0.01 | 0.01 | 67 | 1015.0 |
| 20260508145214 | 61 | 326 | 2.0 | 6.0 | 0.00 | 0.01 | 0.01 | 67 | 1015.0 |
| 20260508144219 | 61 | 306 | 1.0 | 6.0 | 0.00 | 0.01 | 0.01 | 66 | 1015.0 |
| 20260508143732 | 61 | 300 | 2.0 | 9.0 | 0.00 | 0.01 | 0.01 | 66 | 1015.1 |
| 20260508143215 | 61 | 309 | 3.0 | 9.0 | 0.00 | 0.01 | 0.01 | 66 | 1015.1 |
| 20260508142729 | 61 | 329 | 3.0 | 9.0 | 0.00 | 0.01 | 0.01 | 65 | 1015.1 |
| 20260508142210 | 62 | 331 | 3.0 | 8.0 | 0.00 | 0.01 | 0.01 | 64 | 1015.1 |
| 20260508141217 | 62 | 322 | 1.0 | 7.0 | 0.00 | 0.01 | 0.01 | 61 | 1015.1 |
| 20260508140731 | 63 | 325 | 1.0 | 7.0 | 0.00 | 0.01 | 0.01 | 61 | 1015.2 |
| 20260508140214 | 63 | 334 | 1.0 | 5.0 | 0.00 | 0.01 | 0.01 | 60 | 1015.2 |
| 20260508135707 | 63 | 12 | 1.0 | 5.0 | 0.00 | 0.01 | 0.01 | 56 | 1015.2 |
| 20260508135208 | 63 | 10 | 1.0 | 6.0 | 0.00 | 0.01 | 0.01 | 57 | 1015.2 |
| 20260508134713 | 64 | 258 | 2.0 | 11.0 | 0.00 | 0.01 | 0.01 | 56 | 1015.3 |
| 20260508133720 | 65 | 343 | 4.0 | 11.0 | 0.00 | 0.01 | 0.01 | 59 | 1015.3 |
| 20260508133220 | 65 | 349 | 2.0 | 8.0 | 0.00 | 0.01 | 0.01 | 59 | 1015.3 |
| 20260508132719 | 65 | 294 | 1.0 | 5.0 | 0.00 | 0.01 | 0.01 | 55 | 1015.3 |
| 20260508132223 | 64 | 280 | 2.0 | 5.0 | 0.00 | 0.01 | 0.01 | 55 | 1015.2 |
| 20260508131733 | 64 | 317 | 2.0 | 6.0 | 0.00 | 0.01 | 0.01 | 56 | 1015.3 |
| 20260508131220 | 64 | 291 | 1.0 | 8.0 | 0.00 | 0.01 | 0.01 | 58 | 1015.3 |
| 20260508130731 | 64 | 316 | 1.0 | 13.0 | 0.00 | 0.01 | 0.01 | 57 | 1015.4 |
| 20260508130220 | 64 | 355 | 3.0 | 13.0 | 0.00 | 0.01 | 0.01 | 58 | 1015.4 |
| 20260508125723 | 64 | 264 | 6.0 | 9.0 | 0.00 | 0.01 | 0.01 | 59 | 1015.5 |
| 20260508125216 | 63 | 327 | 4.0 | 8.0 | 0.00 | 0.01 | 0.01 | 60 | 1015.5 |
| 20260508124722 | 62 | 290 | 2.0 | 3.0 | 0.00 | 0.01 | 0.01 | 58 | 1015.4 |
| 20260508124216 | 62 | 300 | 1.0 | 3.0 | 0.00 | 0.01 | 0.01 | 51 | 1015.5 |
| 20260508123726 | 62 | 228 | 0.0 | 3.0 | 0.00 | 0.01 | 0.01 | 50 | 1015.5 |
| 20260508122732 | 62 | 257 | 2.0 | 7.0 | 0.00 | 0.01 | 0.01 | 48 | 1015.5 |
| 20260508122221 | 62 | 259 | 2.0 | 8.0 | 0.00 | 0.01 | 0.01 | 51 | 1015.5 |
| 20260508121721 | 62 | 273 | 1.0 | 8.0 | 0.00 | 0.01 | 0.01 | 55 | 1015.6 |
| 20260508121211 | 62 | 290 | 2.0 | 8.0 | 0.00 | 0.01 | 0.01 | 53 | 1015.5 |
| 20260508120720 | 62 | 5 | 0.0 | 6.0 | 0.00 | 0.01 | 0.01 | 55 | 1015.5 |
| 20260508120221 | 62 | 350 | 1.0 | 6.0 | 0.00 | 0.01 | 0.01 | 58 | 1015.6 |
| 20260508115713 | 62 | 330 | 1.0 | 5.0 | 0.00 | 0.01 | 0.01 | 57 | 1015.6 |
| 20260508115217 | 62 | 355 | 0.0 | 4.0 | 0.00 | 0.01 | 0.01 | 54 | 1015.6 |
| 20260508114727 | 63 | 263 | 0.0 | 4.0 | 0.00 | 0.01 | 0.01 | 54 | 1015.6 |
| 20260508113718 | 64 | 335 | 1.0 | 11.0 | 0.00 | 0.01 | 0.01 | 53 | 1015.6 |
| 20260508113224 | 64 | 334 | 2.0 | 15.0 | 0.00 | 0.01 | 0.01 | 51 | 1015.6 |
| 20260508112707 | 63 | 186 | 5.0 | 15.0 | 0.00 | 0.01 | 0.01 | 52 | 1015.6 |
| 20260508112222 | 64 | 163 | 4.0 | 10.0 | 0.00 | 0.01 | 0.01 | 49 | 1015.7 |
| 20260508111714 | 64 | 147 | 2.0 | 10.0 | 0.00 | 0.01 | 0.01 | 53 | 1015.6 |
| 20260508110711 | 63 | 158 | 5.0 | 10.0 | 0.00 | 0.01 | 0.01 | 51 | 1015.7 |
| 20260508110229 | 63 | 163 | 5.0 | 10.0 | 0.00 | 0.01 | 0.01 | 51 | 1015.7 |
| 20260508105723 | 62 | 182 | 4.0 | 12.0 | 0.00 | 0.01 | 0.01 | 57 | 1015.7 |
| 20260508104712 | 62 | 130 | 6.0 | 10.0 | 0.00 | 0.01 | 0.01 | 58 | 1015.7 |
| 20260508104219 | 62 | 138 | 5.0 | 8.0 | 0.00 | 0.01 | 0.01 | 55 | 1015.7 |
| 20260508103715 | 61 | 159 | 3.0 | 8.0 | 0.00 | 0.01 | 0.01 | 54 | 1015.8 |
| 20260508103228 | 61 | 171 | 3.0 | 7.0 | 0.00 | 0.01 | 0.01 | 57 | 1015.8 |
| 20260508102717 | 61 | 120 | 1.0 | 7.0 | 0.00 | 0.01 | 0.01 | 57 | 1015.8 |
| 20260508102207 | 60 | 173 | 1.0 | 8.0 | 0.01 | 0.01 | 0.01 | 59 | 1015.8 |
| 20260508101724 | 60 | 167 | 2.0 | 8.0 | 0.01 | 0.01 | 0.01 | 58 | 1015.9 |
| 20260508100723 | 60 | 164 | 1.0 | 8.0 | 0.01 | 0.01 | 0.01 | 56 | 1015.8 |
| 20260508095211 | 61 | 161 | 4.0 | 9.0 | 0.01 | 0.01 | 0.01 | 60 | 1015.9 |
| 20260508094730 | 60 | 182 | 5.0 | 9.0 | 0.01 | 0.01 | 0.01 | 58 | 1016.0 |
| 20260508093724 | 61 | 158 | 4.0 | 9.0 | 0.01 | 0.01 | 0.01 | 59 | 1016.1 |
| 20260508093221 | 60 | 168 | 4.0 | 9.0 | 0.01 | 0.01 | 0.01 | 61 | 1016.0 |
| 20260508092724 | 60 | 179 | 3.0 | 8.0 | 0.01 | 0.01 | 0.01 | 61 | 1016.1 |
| 20260508092231 | 61 | 168 | 2.0 | 7.0 | 0.00 | 0.00 | 0.00 | 62 | 1016.1 |
| 20260508091714 | 60 | 158 | 1.0 | 7.0 | 0.00 | 0.00 | 0.00 | 63 | 1016.1 |
| 20260508091212 | 60 | 151 | 1.0 | 6.0 | 0.00 | 0.00 | 0.00 | 61 | 1016.1 |
| 20260508090719 | 60 | 143 | 1.0 | 6.0 | 0.00 | 0.00 | 0.00 | 61 | 1016.1 |
| 20260508085710 | 59 | 188 | 1.0 | 5.0 | 0.00 | 0.00 | 0.00 | 64 | 1016.0 |
| 20260508085214 | 59 | 205 | 0.0 | 5.0 | 0.00 | 0.00 | 0.00 | 65 | 1016.1 |
| 20260508084730 | 58 | 209 | 1.0 | 5.0 | 0.00 | 0.00 | 0.00 | 66 | 1016.1 |
| 20260508084221 | 58 | 211 | 1.0 | 4.0 | 0.00 | 0.00 | 0.00 | 68 | 1016.1 |
| 20260508083730 | 58 | 157 | 1.0 | 3.0 | 0.00 | 0.00 | 0.00 | 67 | 1016.1 |
| 20260508083225 | 58 | 196 | 0.0 | 3.0 | 0.00 | 0.00 | 0.00 | 67 | 1016.0 |
| 20260508082717 | 58 | 140 | 0.0 | 5.0 | 0.00 | 0.00 | 0.00 | 66 | 1016.0 |
| 20260508082215 | 58 | 141 | 1.0 | 5.0 | 0.00 | 0.00 | 0.00 | 67 | 1016.0 |
| 20260508081706 | 57 | 169 | 1.0 | 5.0 | 0.00 | 0.00 | 0.00 | 67 | 1016.0 |
| 20260508081207 | 57 | 168 | 1.0 | 4.0 | 0.00 | 0.00 | 0.00 | 68 | 1016.0 |
| 20260508080723 | 57 | 195 | 1.0 | 4.0 | 0.00 | 0.00 | 0.00 | 70 | 1016.0 |
| 20260508080227 | 56 | 172 | 1.0 | 4.0 | 0.00 | 0.00 | 0.00 | 71 | 1016.0 |
| 20260508075713 | 56 | 175 | 1.0 | 3.0 | 0.00 | 0.00 | 0.00 | 72 | 1015.9 |
| 20260508075224 | 56 | 120 | 0.0 | 0.0 | 0.00 | 0.00 | 0.00 | 74 | 1015.9 |
| 20260508074713 | 55 | 173 | 0.0 | 0.0 | 0.00 | 0.00 | 0.00 | 74 | 1015.9 |
| 20260508073711 | 54 | 177 | 0.0 | 0.0 | 0.00 | 0.00 | 0.00 | 76 | 1015.9 |
| 20260508073218 | 54 | 172 | 0.0 | 0.0 | 0.00 | 0.00 | 0.00 | 77 | 1015.9 |
| 20260508072716 | 53 | 168 | 0.0 | 0.0 | 0.00 | 0.00 | 0.00 | 81 | 1016.0 |
| 20260508072219 | 53 | 179 | 0.0 | 0.0 | 0.00 | 0.00 | 0.00 | 84 | 1015.9 |
| 20260508071720 | 52 | 173 | 0.0 | 0.0 | 0.00 | 0.00 | 0.00 | 85 | 1015.9 |
| 20260508071230 | 51 | 157 | 0.0 | 0.0 | 0.00 | 0.00 | 0.00 | 87 | 1015.9 |
| 20260508070708 | 51 | 151 | 0.0 | 0.0 | 0.00 | 0.00 | 0.00 | 91 | 1015.9 |
| 20260508070211 | 51 | 151 | 0.0 | 0.0 | 0.00 | 0.00 | 0.00 | 94 | 1015.9 |
| 20260508065227 | 50 | 55 | 0.0 | 0.0 | 0.00 | 0.00 | 0.00 | 96 | 1015.9 |
| 20260508064216 | 48 | 55 | 0.0 | 0.0 | 0.00 | 0.01 | 0.00 | 96 | 1015.9 |
| 20260508063713 | 47 | 55 | 0.0 | 0.0 | 0.00 | 0.01 | 0.00 | 96 | 1015.9 |
| 20260508063218 | 47 | 55 | 0.0 | 0.0 | 0.00 | 0.01 | 0.00 | 96 | 1015.9 |
| 20260508062710 | 46 | 55 | 0.0 | 0.0 | 0.00 | 0.01 | 0.00 | 96 | 1015.9 |
| 20260508062218 | 45 | 55 | 0.0 | 0.0 | 0.00 | 0.01 | 0.00 | 96 | 1015.8 |
| 20260508061743 | 44 | 55 | 0.0 | 0.0 | 0.00 | 0.01 | 0.00 | 95 | 1015.8 |
| 20260508061222 | 44 | 55 | 0.0 | 0.0 | 0.00 | 0.01 | 0.00 | 96 | 1015.8 |
| 20260508060715 | 43 | 55 | 0.0 | 0.0 | 0.00 | 0.01 | 0.00 | 95 | 1015.7 |
| 20260508060222 | 42 | 55 | 0.0 | 0.0 | 0.00 | 0.01 | 0.00 | 95 | 1015.7 |
| 20260508055713 | 42 | 55 | 0.0 | 0.0 | 0.00 | 0.02 | 0.00 | 95 | 1015.7 |
| 20260508055206 | 42 | 55 | 0.0 | 0.0 | 0.00 | 0.02 | 0.00 | 95 | 1015.7 |
| 20260508054228 | 42 | 55 | 0.0 | 0.0 | 0.00 | 0.02 | 0.00 | 94 | 1015.7 |
| 20260508053731 | 42 | 55 | 0.0 | 0.0 | 0.00 | 0.02 | 0.00 | 94 | 1015.8 |
| 20260508053219 | 41 | 55 | 0.0 | 0.0 | 0.00 | 0.02 | 0.00 | 94 | 1015.8 |
| 20260508052721 | 41 | 55 | 0.0 | 0.0 | 0.00 | 0.02 | 0.00 | 94 | 1015.9 |
| 20260508052224 | 41 | 55 | 0.0 | 0.0 | 0.00 | 0.02 | 0.00 | 94 | 1015.8 |
| 20260508051718 | 41 | 55 | 0.0 | 0.0 | 0.00 | 0.02 | 0.00 | 94 | 1015.8 |
| 20260508051209 | 41 | 55 | 0.0 | 0.0 | 0.00 | 0.02 | 0.00 | 94 | 1015.8 |
| 20260508050716 | 41 | 55 | 0.0 | 0.0 | 0.00 | 0.02 | 0.00 | 94 | 1015.8 |
| 20260508050231 | 41 | 355 | 0.0 | 0.0 | 0.00 | 0.02 | 0.00 | 94 | 1015.8 |
| 20260508045227 | 41 | 355 | 0.0 | 2.0 | 0.00 | 0.03 | 0.00 | 94 | 1015.6 |
| 20260508044720 | 41 | 355 | 0.0 | 2.0 | 0.00 | 0.03 | 0.00 | 94 | 1015.6 |
| 20260508044227 | 41 | 346 | 0.0 | 0.0 | 0.00 | 0.03 | 0.00 | 94 | 1015.7 |
| 20260508043720 | 41 | 346 | 0.0 | 0.0 | 0.00 | 0.03 | 0.00 | 94 | 1015.7 |
| 20260508043220 | 41 | 346 | 0.0 | 0.0 | 0.00 | 0.04 | 0.00 | 94 | 1015.6 |
| 20260508042720 | 41 | 346 | 0.0 | 1.0 | 0.00 | 0.04 | 0.00 | 94 | 1015.7 |
| 20260508042219 | 41 | 346 | 0.0 | 1.0 | 0.00 | 0.04 | 0.00 | 94 | 1015.6 |
| 20260508041732 | 41 | 5 | 0.0 | 1.0 | 0.00 | 0.04 | 0.00 | 94 | 1015.5 |
| 20260508041206 | 41 | 341 | 0.0 | 0.0 | 0.00 | 0.04 | 0.00 | 94 | 1015.5 |
| 20260508040725 | 41 | 33 | 0.0 | 0.0 | 0.00 | 0.05 | 0.00 | 94 | 1015.4 |
| 20260508040215 | 41 | 5 | 0.0 | 3.0 | 0.00 | 0.05 | 0.00 | 94 | 1015.5 |
| 20260508035728 | 41 | 18 | 0.0 | 3.0 | 0.00 | 0.05 | 0.00 | 94 | 1015.5 |
| 20260508035230 | 41 | 0 | 0.0 | 3.0 | 0.00 | 0.06 | 0.00 | 94 | 1015.4 |
| 20260508034720 | 41 | 200 | 0.0 | 0.0 | 0.00 | 0.06 | 0.00 | 94 | 1015.5 |
| 20260508034229 | 41 | 199 | 0.0 | 0.0 | 0.00 | 0.06 | 0.00 | 94 | 1015.5 |
| 20260508033713 | 41 | 199 | 0.0 | 0.0 | 0.00 | 0.07 | 0.00 | 94 | 1015.5 |
| 20260508033228 | 41 | 200 | 0.0 | 0.0 | 0.00 | 0.07 | 0.00 | 94 | 1015.5 |
| 20260508032730 | 41 | 200 | 0.0 | 0.0 | 0.00 | 0.08 | 0.00 | 94 | 1015.4 |
| 20260508032228 | 41 | 200 | 0.0 | 0.0 | 0.00 | 0.08 | 0.00 | 94 | 1015.5 |
| 20260508031219 | 41 | 199 | 0.0 | 0.0 | 0.00 | 0.09 | 0.00 | 94 | 1015.4 |
| 20260508030716 | 41 | 199 | 0.0 | 0.0 | 0.00 | 0.09 | 0.00 | 94 | 1015.4 |
| 20260508030255 | 41 | 200 | 0.0 | 0.0 | 0.00 | 0.09 | 0.00 | 93 | 1015.4 |
| 20260508025712 | 41 | 200 | 0.0 | 0.0 | 0.00 | 0.10 | 0.00 | 93 | 1015.4 |
| 20260508025213 | 41 | 199 | 0.0 | 0.0 | 0.00 | 0.11 | 0.00 | 93 | 1015.3 |
| 20260508024218 | 41 | 200 | 0.0 | 0.0 | 0.00 | 0.13 | 0.00 | 93 | 1015.3 |
| 20260508023221 | 41 | 200 | 0.0 | 0.0 | 0.00 | 0.13 | 0.00 | 93 | 1015.4 |
| 20260508022215 | 41 | 199 | 0.0 | 0.0 | 0.00 | 0.14 | 0.00 | 93 | 1015.5 |
| 20260508021730 | 41 | 200 | 0.0 | 0.0 | 0.00 | 0.15 | 0.00 | 93 | 1015.5 |
| 20260508021226 | 41 | 199 | 0.0 | 0.0 | 0.00 | 0.16 | 0.00 | 93 | 1015.5 |
| 20260508015718 | 41 | 199 | 0.0 | 0.0 | 0.00 | 0.17 | 0.00 | 93 | 1015.4 |
| 20260508015223 | 41 | 199 | 0.0 | 0.0 | 0.00 | 0.17 | 0.00 | 93 | 1015.5 |
| 20260508014708 | 41 | 200 | 0.0 | 0.0 | 0.00 | 0.18 | 0.00 | 93 | 1015.4 |
| 20260508014227 | 41 | 199 | 0.0 | 0.0 | 0.00 | 0.18 | 0.00 | 93 | 1015.4 |
| 20260508013715 | 41 | 200 | 0.0 | 0.0 | 0.00 | 0.19 | 0.00 | 93 | 1015.3 |
| 20260508013215 | 41 | 199 | 0.0 | 0.0 | 0.00 | 0.19 | 0.00 | 92 | 1015.3 |
| 20260508012711 | 41 | 199 | 0.0 | 0.0 | 0.00 | 0.19 | 0.00 | 92 | 1015.3 |
| 20260508012211 | 41 | 199 | 0.0 | 0.0 | 0.00 | 0.19 | 0.00 | 92 | 1015.3 |
| 20260508011721 | 41 | 200 | 0.0 | 0.0 | 0.00 | 0.19 | 0.00 | 92 | 1015.3 |
| 20260508010720 | 41 | 200 | 0.0 | 0.0 | 0.00 | 0.20 | 0.00 | 92 | 1015.3 |
| 20260508010222 | 41 | 200 | 0.0 | 0.0 | 0.00 | 0.20 | 0.00 | 92 | 1015.3 |
| 20260508005731 | 41 | 200 | 0.0 | 0.0 | 0.00 | 0.20 | 0.00 | 92 | 1015.4 |
| 20260508005221 | 41 | 200 | 0.0 | 0.0 | 0.00 | 0.20 | 0.00 | 92 | 1015.4 |
| 20260508004740 | 41 | 199 | 0.0 | 0.0 | 0.00 | 0.20 | 0.00 | 92 | 1015.3 |
| 20260508004229 | 41 | 199 | 0.0 | 0.0 | 0.00 | 0.20 | 0.00 | 92 | 1015.4 |
| 20260508003714 | 41 | 199 | 0.0 | 0.0 | 0.00 | 0.20 | 0.00 | 92 | 1015.4 |
| 20260508003227 | 41 | 200 | 0.0 | 0.0 | 0.00 | 0.20 | 0.00 | 91 | 1015.4 |
| 20260508002718 | 41 | 200 | 0.0 | 0.0 | 0.00 | 0.20 | 0.00 | 91 | 1015.4 |
| 20260508002217 | 41 | 199 | 0.0 | 0.0 | 0.00 | 0.20 | 0.00 | 91 | 1015.4 |
| 20260508001713 | 41 | 199 | 0.0 | 0.0 | 0.00 | 0.20 | 0.00 | 91 | 1015.4 |
| 20260508001223 | 41 | 199 | 0.0 | 0.0 | 0.00 | 0.20 | 0.00 | 91 | 1015.4 |
| 20260508000720 | 41 | 200 | 0.0 | 0.0 | 0.00 | 0.20 | 0.00 | 91 | 1015.5 |
| 20260508000206 | 41 | 200 | 0.0 | 0.0 | 0.00 | 0.20 | 0.00 | 91 | 1015.5 |
| 20260507235726 | 41 | 200 | 0.0 | 0.0 | 0.00 | 0.20 | 0.00 | 91 | 1015.5 |
| 20260507235219 | 42 | 200 | 0.0 | 0.0 | 0.00 | 0.20 | 0.00 | 91 | 1015.6 |
| 20260507234725 | 42 | 200 | 0.0 | 0.0 | 0.00 | 0.20 | 0.00 | 91 | 1015.7 |
| 20260507234229 | 41 | 199 | 0.0 | 0.0 | 0.00 | 0.20 | 0.00 | 91 | 1015.7 |
| 20260507233231 | 42 | 200 | 0.0 | 0.0 | 0.00 | 0.20 | 0.00 | 91 | 1015.9 |
| 20260507232219 | 42 | 200 | 0.0 | 0.0 | 0.00 | 0.21 | 0.00 | 90 | 1016.1 |
| 20260507231717 | 42 | 200 | 0.0 | 0.0 | 0.00 | 0.21 | 0.00 | 91 | 1016.1 |
| 20260507231229 | 42 | 200 | 0.0 | 0.0 | 0.00 | 0.21 | 0.00 | 90 | 1016.2 |
| 20260507230729 | 42 | 200 | 0.0 | 0.0 | 0.00 | 0.21 | 0.00 | 90 | 1016.1 |
| 20260507230247 | 42 | 154 | 0.0 | 0.0 | 0.00 | 0.22 | 0.00 | 90 | 1016.1 |
| 20260507225722 | 42 | 154 | 0.0 | 0.0 | 0.00 | 0.22 | 0.00 | 90 | 1016.1 |
| 20260507225231 | 42 | 154 | 0.0 | 0.0 | 0.00 | 0.22 | 0.00 | 90 | 1016.2 |
| 20260507224733 | 42 | 154 | 0.0 | 0.0 | 0.00 | 0.23 | 0.00 | 90 | 1016.2 |
| 20260507224231 | 42 | 140 | 0.0 | 0.0 | 0.00 | 0.23 | 0.00 | 90 | 1016.1 |
| 20260507223729 | 42 | 140 | 0.0 | 0.0 | 0.00 | 0.23 | 0.00 | 90 | 1016.1 |
| 20260507223219 | 42 | 140 | 0.0 | 0.0 | 0.00 | 0.24 | 0.00 | 90 | 1016.1 |
| 20260507222707 | 42 | 140 | 0.0 | 0.0 | 0.00 | 0.24 | 0.00 | 90 | 1016.2 |
| 20260507222227 | 42 | 141 | 0.0 | 0.0 | 0.00 | 0.24 | 0.00 | 90 | 1016.2 |
| 20260507221728 | 42 | 142 | 0.0 | 0.0 | 0.00 | 0.25 | 0.00 | 89 | 1016.2 |
| 20260507221217 | 42 | 142 | 0.0 | 0.0 | 0.00 | 0.25 | 0.00 | 89 | 1016.2 |
| 20260507220729 | 42 | 66 | 0.0 | 0.0 | 0.00 | 0.25 | 0.00 | 89 | 1016.4 |
| 20260507220216 | 42 | 66 | 0.0 | 0.0 | 0.00 | 0.25 | 0.25 | 90 | 1016.4 |
| 20260507215725 | 42 | 66 | 0.0 | 1.0 | 0.00 | 0.25 | 0.25 | 90 | 1016.2 |
| 20260507215226 | 42 | 94 | 0.0 | 1.0 | 0.00 | 0.25 | 0.25 | 90 | 1016.4 |
| 20260507214209 | 42 | 316 | 0.0 | 0.0 | 0.00 | 0.25 | 0.25 | 89 | 1016.1 |
| 20260507213710 | 43 | 53 | 0.0 | 0.0 | 0.00 | 0.25 | 0.25 | 89 | 1016.2 |
| 20260507213216 | 43 | 52 | 0.0 | 0.0 | 0.00 | 0.25 | 0.25 | 89 | 1016.1 |
| 20260507212710 | 43 | 53 | 0.0 | 0.0 | 0.00 | 0.25 | 0.25 | 89 | 1016.1 |
| 20260507211725 | 43 | 53 | 0.0 | 0.0 | 0.00 | 0.25 | 0.25 | 89 | 1016.2 |
| 20260507211241 | 43 | 53 | 0.0 | 0.0 | 0.00 | 0.25 | 0.25 | 89 | 1016.1 |
| 20260507210714 | 43 | 52 | 0.0 | 0.0 | 0.00 | 0.25 | 0.25 | 89 | 1016.1 |
| 20260507205221 | 43 | 19 | 0.0 | 0.0 | 0.00 | 0.25 | 0.25 | 88 | 1016.1 |
| 20260507204720 | 43 | 343 | 0.0 | 0.0 | 0.00 | 0.25 | 0.25 | 88 | 1016.1 |
| 20260507204214 | 44 | 97 | 0.0 | 0.0 | 0.00 | 0.25 | 0.25 | 88 | 1016.1 |
| 20260507203719 | 44 | 338 | 0.0 | 0.0 | 0.00 | 0.25 | 0.25 | 88 | 1016.1 |
| 20260507203223 | 44 | 338 | 0.0 | 0.0 | 0.00 | 0.26 | 0.25 | 88 | 1016.0 |
| 20260507202728 | 44 | 5 | 0.0 | 0.0 | 0.00 | 0.26 | 0.25 | 88 | 1015.9 |
| 20260507202217 | 44 | 12 | 0.0 | 0.0 | 0.00 | 0.26 | 0.25 | 87 | 1015.9 |
| 20260507201724 | 44 | 5 | 0.0 | 0.0 | 0.00 | 0.26 | 0.25 | 87 | 1015.9 |
| 20260507201217 | 44 | 0 | 0.0 | 0.0 | 0.00 | 0.27 | 0.25 | 87 | 1015.9 |
| 20260507200721 | 44 | 355 | 0.0 | 3.0 | 0.00 | 0.27 | 0.25 | 87 | 1015.8 |
| 20260507200209 | 45 | 355 | 0.0 | 4.0 | 0.00 | 0.27 | 0.25 | 87 | 1015.9 |
| 20260507195732 | 45 | 355 | 0.0 | 4.0 | 0.00 | 0.27 | 0.25 | 87 | 1015.9 |
| 20260507195225 | 45 | 323 | 0.0 | 0.0 | 0.00 | 0.27 | 0.25 | 87 | 1015.7 |
| 20260507194712 | 45 | 355 | 0.0 | 0.0 | 0.00 | 0.27 | 0.25 | 86 | 1015.7 |
| 20260507194212 | 45 | 355 | 0.0 | 0.0 | 0.00 | 0.28 | 0.25 | 86 | 1015.6 |
| 20260507193721 | 46 | 355 | 0.0 | 0.0 | 0.00 | 0.28 | 0.25 | 86 | 1015.6 |
| 20260507193225 | 46 | 355 | 0.0 | 0.0 | 0.00 | 0.28 | 0.25 | 86 | 1015.6 |
| 20260507192716 | 46 | 355 | 0.0 | 2.0 | 0.00 | 0.28 | 0.25 | 85 | 1015.5 |
| 20260507192209 | 46 | 355 | 0.0 | 2.0 | 0.00 | 0.28 | 0.25 | 85 | 1015.4 |
| 20260507191721 | 47 | 355 | 0.0 | 3.0 | 0.00 | 0.28 | 0.25 | 85 | 1015.2 |
| 20260507191215 | 47 | 350 | 0.0 | 3.0 | 0.00 | 0.28 | 0.25 | 84 | 1015.3 |
| 20260507190720 | 47 | 355 | 0.0 | 3.0 | 0.00 | 0.28 | 0.25 | 84 | 1015.2 |
| 20260507190225 | 47 | 331 | 0.0 | 0.0 | 0.00 | 0.28 | 0.25 | 84 | 1015.3 |
| 20260507185729 | 48 | 5 | 0.0 | 7.0 | 0.00 | 0.28 | 0.25 | 84 | 1015.2 |
| 20260507185220 | 48 | 5 | 1.0 | 7.0 | 0.00 | 0.29 | 0.25 | 83 | 1015.2 |
| 20260507184727 | 49 | 342 | 1.0 | 7.0 | 0.00 | 0.29 | 0.25 | 82 | 1015.1 |
| 20260507184224 | 49 | 343 | 1.0 | 0.0 | 0.00 | 0.29 | 0.25 | 82 | 1015.0 |
| 20260507183720 | 49 | 336 | 0.0 | 0.0 | 0.00 | 0.29 | 0.25 | 83 | 1015.1 |
| 20260507183217 | 50 | 355 | 0.0 | 0.0 | 0.00 | 0.30 | 0.25 | 82 | 1015.0 |
| 20260507182717 | 50 | 355 | 0.0 | 0.0 | 0.00 | 0.30 | 0.25 | 82 | 1015.0 |
| 20260507181716 | 50 | 338 | 0.0 | 0.0 | 0.00 | 0.31 | 0.25 | 80 | 1015.1 |
| 20260507181222 | 51 | 335 | 0.0 | 0.0 | 0.00 | 0.31 | 0.25 | 80 | 1015.1 |
| 20260507180227 | 51 | 315 | 0.0 | 0.0 | 0.00 | 0.33 | 0.25 | 78 | 1015.1 |
| 20260507175713 | 52 | 325 | 0.0 | 0.0 | 0.00 | 0.33 | 0.25 | 77 | 1015.1 |
| 20260507175228 | 52 | 319 | 0.0 | 0.0 | 0.00 | 0.34 | 0.25 | 76 | 1015.1 |
| 20260507174732 | 52 | 315 | 0.0 | 0.0 | 0.00 | 0.35 | 0.25 | 76 | 1015.0 |
| 20260507174211 | 52 | 324 | 0.0 | 0.0 | 0.00 | 0.35 | 0.25 | 75 | 1015.0 |